QFA55 PAYA-PAFA

Flight info

Callsign QFA55
Flight time 1h 13m
Altitude 34000
Route YAK J507 ORT J502 RDFLG HRDNG4
Aircraft B738/M-SDE2E3FGHIRWXY/LB1

Departure

Time 2026-04-24 09:40
Airport Yakutat Airport (PAYA)

Arrival

Time 2026-04-24 10:53
Airport Fairbanks International Airport (PAFA)
Time Latitude Longitude Altitude Speed Heading
2026-04-24 09:29 59.50995 -139.66590 41 ft 0 kts 46°
2026-04-24 09:34 59.50996 -139.66588 41 ft 1 kts 46°
2026-04-24 09:34 59.50995 -139.66559 41 ft 3 kts 134°
2026-04-24 09:34 59.50978 -139.66554 41 ft 3 kts 179°
2026-04-24 09:34 59.50960 -139.66552 41 ft 2 kts 168°
2026-04-24 09:35 59.50937 -139.66522 41 ft 7 kts 141°
2026-04-24 09:35 59.50911 -139.66426 41 ft 10 kts 92°
2026-04-24 09:35 59.50942 -139.66314 41 ft 1 kts 47°
2026-04-24 09:35 59.50947 -139.66302 41 ft 6 kts 47°
2026-04-24 09:36 59.51005 -139.66233 41 ft 11 kts 356°
2026-04-24 09:36 59.51077 -139.66316 41 ft 13 kts 324°
2026-04-24 09:36 59.51132 -139.66391 41 ft 6 kts 313°
2026-04-24 09:36 59.51117 -139.66420 41 ft 4 kts 145°
2026-04-24 09:37 59.51106 -139.66384 41 ft 0 kts 134°
2026-04-24 09:38 59.51106 -139.66383 41 ft 0 kts 134°
2026-04-24 09:39 59.51104 -139.66380 41 ft 0 kts 134°
2026-04-24 09:39 59.51099 -139.66370 41 ft 8 kts 134°
2026-04-24 09:40 59.50940 -139.66059 42 ft 62 kts 135°
2026-04-24 09:40 59.50492 -139.65183 42 ft 118 kts 135°
2026-04-24 09:40 59.49797 -139.63828 77 ft 158 kts 135°
2026-04-24 09:40 59.49036 -139.62368 669 ft 151 kts 136°
2026-04-24 09:41 59.48266 -139.60910 1153 ft 158 kts 128°
2026-04-24 09:41 59.47797 -139.58854 1489 ft 175 kts 95°
2026-04-24 09:41 59.48093 -139.56487 1846 ft 187 kts 54°
2026-04-24 09:41 59.49131 -139.55036 2369 ft 186 kts 13°
2026-04-24 09:42 59.50415 -139.55263 2765 ft 192 kts 332°
2026-04-24 09:42 59.51389 -139.57019 3279 ft 191 kts 308°
2026-04-24 09:42 59.52194 -139.58990 4008 ft 180 kts 308°
2026-04-24 09:42 59.53036 -139.61002 4172 ft 206 kts 309°
2026-04-24 09:43 59.54007 -139.63295 4368 ft 227 kts 309°
2026-04-24 09:43 59.55074 -139.65774 4674 ft 245 kts 309°
2026-04-24 09:43 59.56247 -139.68310 5139 ft 257 kts 321°
2026-04-24 09:43 59.57813 -139.70048 5739 ft 261 kts 337°
2026-04-24 09:44 59.59561 -139.71119 6404 ft 265 kts 345°
2026-04-24 09:44 59.61379 -139.71896 7036 ft 269 kts 347°
2026-04-24 09:44 59.63214 -139.72723 7683 ft 272 kts 344°
2026-04-24 09:44 59.65043 -139.73713 8325 ft 274 kts 342°
2026-04-24 09:45 59.66881 -139.74814 8965 ft 277 kts 341°
2026-04-24 09:45 59.68732 -139.75939 9601 ft 280 kts 341°
2026-04-24 09:45 59.70608 -139.77054 10183 ft 287 kts 340°
2026-04-24 09:45 59.72584 -139.78208 10452 ft 304 kts 340°
2026-04-24 09:46 59.74664 -139.79415 10721 ft 320 kts 340°
2026-04-24 09:46 59.76851 -139.80685 11062 ft 333 kts 340°
2026-04-24 09:46 59.79093 -139.81989 11620 ft 338 kts 340°
2026-04-24 09:46 59.81364 -139.83314 12250 ft 342 kts 339°
2026-04-24 09:47 59.83668 -139.84665 12902 ft 346 kts 339°
2026-04-24 09:47 59.85986 -139.86028 13543 ft 350 kts 338°
2026-04-24 09:47 59.88339 -139.87413 14197 ft 354 kts 338°
2026-04-24 09:47 59.90712 -139.88810 14868 ft 358 kts 338°
2026-04-24 09:48 59.93114 -139.90226 15519 ft 363 kts 338°
2026-04-24 09:48 59.95552 -139.91666 16170 ft 367 kts 337°
2026-04-24 09:48 59.98012 -139.93121 16830 ft 371 kts 337°
2026-04-24 09:48 60.00501 -139.94595 17479 ft 375 kts 337°
2026-04-24 09:49 60.03018 -139.96088 18114 ft 380 kts 336°
2026-04-24 09:49 60.05570 -139.97604 18758 ft 384 kts 336°
2026-04-24 09:49 60.08143 -139.99135 19395 ft 387 kts 337°
2026-04-24 09:49 60.10736 -140.00680 20018 ft 390 kts 337°
2026-04-24 09:50 60.13354 -140.02243 20623 ft 394 kts 337°
2026-04-24 09:50 60.15992 -140.03822 21206 ft 397 kts 337°
2026-04-24 09:50 60.18654 -140.05418 21777 ft 400 kts 337°
2026-04-24 09:50 60.21339 -140.07029 22326 ft 404 kts 337°
2026-04-24 09:51 60.24035 -140.08673 22861 ft 407 kts 336°
2026-04-24 09:51 60.26748 -140.10354 23390 ft 409 kts 336°
2026-04-24 09:51 60.29478 -140.12055 23895 ft 412 kts 336°
2026-04-24 09:51 60.32233 -140.13765 24388 ft 415 kts 336°
2026-04-24 09:52 60.35001 -140.15475 24883 ft 417 kts 336°
2026-04-24 09:52 60.37785 -140.17195 25364 ft 419 kts 336°
2026-04-24 09:52 60.40585 -140.18932 25843 ft 421 kts 336°
2026-04-24 09:52 60.43388 -140.20678 26297 ft 423 kts 336°
2026-04-24 09:53 60.46205 -140.22438 26736 ft 424 kts 336°
2026-04-24 09:53 60.49029 -140.24204 27154 ft 426 kts 336°
2026-04-24 09:53 60.51866 -140.25980 27561 ft 427 kts 336°
2026-04-24 09:53 60.54717 -140.27768 27935 ft 429 kts 336°
2026-04-24 09:54 60.57572 -140.29561 28305 ft 430 kts 335°
2026-04-24 09:54 60.60438 -140.31365 28660 ft 432 kts 335°
2026-04-24 09:54 60.63311 -140.33177 29004 ft 433 kts 335°
2026-04-24 09:54 60.66197 -140.35001 29335 ft 434 kts 335°
2026-04-24 09:55 60.69084 -140.36829 29642 ft 436 kts 335°
2026-04-24 09:55 60.71988 -140.38672 29857 ft 439 kts 335°
2026-04-24 09:55 60.74910 -140.40531 30104 ft 440 kts 335°
2026-04-24 09:55 60.77836 -140.42392 30391 ft 441 kts 335°
2026-04-24 09:56 60.80761 -140.44254 30713 ft 439 kts 335°
2026-04-24 09:56 60.83672 -140.46110 31046 ft 438 kts 335°
2026-04-24 09:56 60.86572 -140.47966 31372 ft 436 kts 335°
2026-04-24 09:56 60.89499 -140.49845 31724 ft 433 kts 335°
2026-04-24 09:57 60.92364 -140.51688 32052 ft 431 kts 335°
2026-04-24 09:57 60.95217 -140.53525 32369 ft 428 kts 334°
2026-04-24 09:57 60.98052 -140.55355 32674 ft 426 kts 334°
2026-04-24 09:57 61.00879 -140.57182 32961 ft 424 kts 334°
2026-04-24 09:58 61.03687 -140.59001 33250 ft 422 kts 334°
2026-04-24 09:58 61.06480 -140.60813 33523 ft 420 kts 334°
2026-04-24 09:58 61.09263 -140.62623 33790 ft 418 kts 334°
2026-04-24 09:58 61.12032 -140.64426 34052 ft 416 kts 334°
2026-04-24 09:59 61.14792 -140.66228 34235 ft 416 kts 334°
2026-04-24 09:59 61.17560 -140.68042 34239 ft 419 kts 334°
2026-04-24 09:59 61.23135 -140.71699 34244 ft 420 kts 334°
2026-04-24 10:00 61.28692 -140.75344 34242 ft 416 kts 334°
2026-04-24 10:00 61.34186 -140.78972 34240 ft 413 kts 334°
2026-04-24 10:01 61.39654 -140.82605 34234 ft 413 kts 334°
2026-04-24 10:01 61.45131 -140.86247 34211 ft 413 kts 334°
2026-04-24 10:02 61.50600 -140.89895 34206 ft 413 kts 334°
2026-04-24 10:02 61.56071 -140.93564 34205 ft 412 kts 333°
2026-04-24 10:03 61.61539 -140.97246 34203 ft 413 kts 333°
2026-04-24 10:03 61.67017 -141.00941 34199 ft 413 kts 333°
2026-04-24 10:04 61.72491 -141.04648 34197 ft 413 kts 333°
2026-04-24 10:04 61.78005 -141.08400 34195 ft 414 kts 333°
2026-04-24 10:05 61.83491 -141.12146 34193 ft 414 kts 333°
2026-04-24 10:05 61.88983 -141.15909 34189 ft 415 kts 333°
2026-04-24 10:06 61.97221 -141.21580 34179 ft 415 kts 333°
2026-04-24 10:07 62.02716 -141.25383 34176 ft 416 kts 333°
2026-04-24 10:07 62.08215 -141.29201 34172 ft 415 kts 333°
2026-04-24 10:08 62.13704 -141.33027 34169 ft 415 kts 333°
2026-04-24 10:08 62.19190 -141.36866 34165 ft 415 kts 333°
2026-04-24 10:09 62.24682 -141.40726 34156 ft 416 kts 333°
2026-04-24 10:09 62.30189 -141.44607 34150 ft 416 kts 333°
2026-04-24 10:10 62.35692 -141.48502 34147 ft 416 kts 332°
2026-04-24 10:10 62.41193 -141.52411 34145 ft 416 kts 332°
2026-04-24 10:11 62.46688 -141.56332 34143 ft 416 kts 332°
2026-04-24 10:11 62.52178 -141.60263 34141 ft 415 kts 332°
2026-04-24 10:12 62.56772 -141.63565 34140 ft 415 kts 332°
2026-04-24 10:12 62.62257 -141.67523 34138 ft 416 kts 332°
2026-04-24 10:13 62.67751 -141.71501 34137 ft 416 kts 332°
2026-04-24 10:13 62.73250 -141.75499 34104 ft 417 kts 333°
2026-04-24 10:14 62.78746 -141.79509 34127 ft 416 kts 332°
2026-04-24 10:14 62.84230 -141.83528 34130 ft 416 kts 330°
2026-04-24 10:15 62.89715 -141.87568 34148 ft 416 kts 330°
2026-04-24 10:15 62.92402 -141.89794 34111 ft 405 kts 323°
2026-04-24 10:15 62.94753 -141.92990 34105 ft 388 kts 312°
2026-04-24 10:15 62.96682 -141.97023 34166 ft 377 kts 302°
2026-04-24 10:16 62.98306 -142.01530 34118 ft 377 kts 300°
2026-04-24 10:16 63.01462 -142.10760 34153 ft 378 kts 299°
2026-04-24 10:17 63.04624 -142.20037 34141 ft 379 kts 299°
2026-04-24 10:17 63.07832 -142.29387 34079 ft 381 kts 299°
2026-04-24 10:18 63.11006 -142.38715 34129 ft 381 kts 298°
2026-04-24 10:18 63.14178 -142.48087 34138 ft 381 kts 298°
2026-04-24 10:19 63.17349 -142.57487 34102 ft 381 kts 299°
2026-04-24 10:19 63.20512 -142.66904 34102 ft 381 kts 298°
2026-04-24 10:20 63.23671 -142.76341 34148 ft 381 kts 298°
2026-04-24 10:20 63.26831 -142.85832 34121 ft 383 kts 298°
2026-04-24 10:21 63.29994 -142.95361 34146 ft 384 kts 298°
2026-04-24 10:21 63.33154 -143.04922 34124 ft 383 kts 298°
2026-04-24 10:22 63.36308 -143.14516 34088 ft 384 kts 298°
2026-04-24 10:22 63.39457 -143.24131 34095 ft 383 kts 297°
2026-04-24 10:23 63.42598 -143.33751 34129 ft 383 kts 297°
2026-04-24 10:23 63.45735 -143.43410 34120 ft 385 kts 297°
2026-04-24 10:24 63.48875 -143.53118 34128 ft 386 kts 296°
2026-04-24 10:24 63.52018 -143.62876 34127 ft 386 kts 296°
2026-04-24 10:25 63.55156 -143.72660 34128 ft 386 kts 296°
2026-04-24 10:25 63.58303 -143.82531 34126 ft 386 kts 296°
2026-04-24 10:26 63.61427 -143.92343 34125 ft 386 kts 296°
2026-04-24 10:26 63.64542 -144.02182 34122 ft 386 kts 295°
2026-04-24 10:27 63.67647 -144.12042 34121 ft 386 kts 295°
2026-04-24 10:27 63.70755 -144.21945 34118 ft 387 kts 295°
2026-04-24 10:28 63.73857 -144.31875 34117 ft 387 kts 295°
2026-04-24 10:28 63.76958 -144.41847 34115 ft 388 kts 295°
2026-04-24 10:28 63.78509 -144.46852 33679 ft 388 kts 295°
2026-04-24 10:29 63.80048 -144.51810 33185 ft 382 kts 295°
2026-04-24 10:29 63.81563 -144.56702 32716 ft 377 kts 295°
2026-04-24 10:29 63.83049 -144.61526 32261 ft 371 kts 294°
2026-04-24 10:29 63.84514 -144.66299 31813 ft 367 kts 294°
2026-04-24 10:30 63.85960 -144.71023 31378 ft 362 kts 294°
2026-04-24 10:30 63.87390 -144.75699 30936 ft 358 kts 294°
2026-04-24 10:30 63.88801 -144.80319 30496 ft 355 kts 294°
2026-04-24 10:30 63.90201 -144.84909 29979 ft 353 kts 294°
2026-04-24 10:31 63.91595 -144.89484 29489 ft 351 kts 294°
2026-04-24 10:31 63.92979 -144.94030 29059 ft 348 kts 294°
2026-04-24 10:31 63.94352 -144.98562 28645 ft 352 kts 294°
2026-04-24 10:31 63.95753 -145.03243 28204 ft 359 kts 295°
2026-04-24 10:32 63.97163 -145.07914 27789 ft 356 kts 295°
2026-04-24 10:32 63.98565 -145.12541 27352 ft 353 kts 295°
2026-04-24 10:32 63.99948 -145.17126 26939 ft 350 kts 294°
2026-04-24 10:32 64.01319 -145.21697 26510 ft 347 kts 295°
2026-04-24 10:33 64.02671 -145.26226 26092 ft 344 kts 295°
2026-04-24 10:33 64.04011 -145.30721 25679 ft 341 kts 296°
2026-04-24 10:33 64.05348 -145.35222 25274 ft 350 kts 296°
2026-04-24 10:33 64.06726 -145.39889 24843 ft 354 kts 296°
2026-04-24 10:34 64.08108 -145.44531 24419 ft 351 kts 297°
2026-04-24 10:34 64.09478 -145.49127 23997 ft 348 kts 297°
2026-04-24 10:34 64.10833 -145.53698 23580 ft 345 kts 297°
2026-04-24 10:34 64.12169 -145.58231 23167 ft 342 kts 297°
2026-04-24 10:35 64.13494 -145.62739 22757 ft 339 kts 297°
2026-04-24 10:35 64.14802 -145.67199 22351 ft 336 kts 297°
2026-04-24 10:35 64.16096 -145.71612 21950 ft 333 kts 297°
2026-04-24 10:35 64.17391 -145.76045 21551 ft 340 kts 297°
2026-04-24 10:36 64.18707 -145.80568 21138 ft 341 kts 297°
2026-04-24 10:36 64.20025 -145.85085 20727 ft 340 kts 298°
2026-04-24 10:36 64.21356 -145.89646 20312 ft 339 kts 298°
2026-04-24 10:36 64.22643 -145.94072 19910 ft 335 kts 298°
2026-04-24 10:37 64.23928 -145.98507 19507 ft 331 kts 298°
2026-04-24 10:37 64.25196 -146.02891 19109 ft 327 kts 298°
2026-04-24 10:37 64.26444 -146.07224 18717 ft 322 kts 298°
2026-04-24 10:37 64.27671 -146.11493 18331 ft 318 kts 298°
2026-04-24 10:38 64.28905 -146.15802 17945 ft 327 kts 298°
2026-04-24 10:38 64.30160 -146.20185 17546 ft 328 kts 298°
2026-04-24 10:38 64.31401 -146.24593 17135 ft 327 kts 297°
2026-04-24 10:38 64.32603 -146.28990 16732 ft 322 kts 297°
2026-04-24 10:39 64.33775 -146.33334 16342 ft 316 kts 297°
2026-04-24 10:39 64.34931 -146.37604 15960 ft 311 kts 297°
2026-04-24 10:39 64.36080 -146.41828 15585 ft 312 kts 297°
2026-04-24 10:39 64.37262 -146.46182 15198 ft 318 kts 297°
2026-04-24 10:40 64.38439 -146.50513 14809 ft 319 kts 297°
2026-04-24 10:40 64.39609 -146.54824 14422 ft 314 kts 297°
2026-04-24 10:40 64.40758 -146.59065 14046 ft 308 kts 297°
2026-04-24 10:40 64.41882 -146.63227 13678 ft 304 kts 297°
2026-04-24 10:41 64.43001 -146.67398 13310 ft 307 kts 297°
2026-04-24 10:41 64.44134 -146.71630 12936 ft 310 kts 297°
2026-04-24 10:41 64.45277 -146.75890 12559 ft 312 kts 297°
2026-04-24 10:41 64.46410 -146.80109 12184 ft 305 kts 297°
2026-04-24 10:42 64.47518 -146.84244 11817 ft 299 kts 297°
2026-04-24 10:42 64.48613 -146.88351 11459 ft 303 kts 297°
2026-04-24 10:42 64.49725 -146.92547 11094 ft 307 kts 298°
2026-04-24 10:42 64.50842 -146.96756 10730 ft 304 kts 298°
2026-04-24 10:43 64.51943 -147.00895 10363 ft 298 kts 298°
2026-04-24 10:43 64.53015 -147.04935 10136 ft 287 kts 298°
2026-04-24 10:43 64.54048 -147.08838 10016 ft 281 kts 298°
2026-04-24 10:43 64.55062 -147.12689 9789 ft 281 kts 298°
2026-04-24 10:44 64.56086 -147.16590 9433 ft 282 kts 298°
2026-04-24 10:44 64.57101 -147.20455 9079 ft 278 kts 299°
2026-04-24 10:44 64.58101 -147.24258 8742 ft 274 kts 299°
2026-04-24 10:44 64.58758 -147.26766 8521 ft 273 kts 299°
2026-04-24 10:45 64.60067 -147.31786 8075 ft 271 kts 299°
2026-04-24 10:45 64.61041 -147.35520 7744 ft 269 kts 299°
2026-04-24 10:45 64.62011 -147.39237 7412 ft 268 kts 299°
2026-04-24 10:45 64.62939 -147.42965 7082 ft 264 kts 291°
2026-04-24 10:46 64.63343 -147.45681 6889 ft 261 kts 281°
2026-04-24 10:46 64.63753 -147.49753 6565 ft 256 kts 280°
2026-04-24 10:46 64.64138 -147.53774 6245 ft 252 kts 280°
2026-04-24 10:46 64.64508 -147.57709 6012 ft 243 kts 280°
2026-04-24 10:47 64.64865 -147.61492 5915 ft 237 kts 280°
2026-04-24 10:47 64.65194 -147.65235 5825 ft 236 kts 276°
2026-04-24 10:47 64.65403 -147.69066 5580 ft 240 kts 274°
2026-04-24 10:47 64.65565 -147.72899 5314 ft 235 kts 273°
2026-04-24 10:48 64.65716 -147.76695 5060 ft 234 kts 273°
2026-04-24 10:48 64.65872 -147.80448 4797 ft 229 kts 274°
2026-04-24 10:48 64.66031 -147.84080 4552 ft 221 kts 274°
2026-04-24 10:48 64.66183 -147.87575 4311 ft 213 kts 274°
2026-04-24 10:49 64.66328 -147.90941 4090 ft 204 kts 274°
2026-04-24 10:49 64.66467 -147.94174 3866 ft 197 kts 274°
2026-04-24 10:49 64.66702 -147.97267 3618 ft 192 kts 287°
2026-04-24 10:49 64.67315 -147.99987 3358 ft 188 kts 307°
2026-04-24 10:50 64.68242 -148.02072 3113 ft 183 kts 326°
2026-04-24 10:50 64.69362 -148.03350 2876 ft 177 kts 343°
2026-04-24 10:50 64.70573 -148.03778 2647 ft 174 kts
2026-04-24 10:50 64.71742 -148.03370 2442 ft 167 kts 18°
2026-04-24 10:51 64.72793 -148.02224 2227 ft 169 kts 34°
2026-04-24 10:51 64.73727 -148.00561 2036 ft 168 kts 39°
2026-04-24 10:51 64.74649 -147.98877 1848 ft 162 kts 39°
2026-04-24 10:51 64.75511 -147.97295 1669 ft 152 kts 39°
2026-04-24 10:52 64.76317 -147.95763 1432 ft 147 kts 40°
2026-04-24 10:52 64.77119 -147.94292 1192 ft 145 kts 37°
2026-04-24 10:52 64.77916 -147.92878 1003 ft 142 kts 38°
2026-04-24 10:52 64.78683 -147.91440 830 ft 142 kts 39°
2026-04-24 10:53 64.79466 -147.90035 708 ft 140 kts 37°
2026-04-24 10:53 64.80224 -147.88656 497 ft 137 kts 38°
2026-04-24 10:53 64.80936 -147.87353 443 ft 107 kts 38°
2026-04-24 10:53 64.81338 -147.86612 443 ft 41 kts 38°
2026-04-24 10:54 64.81523 -147.86273 443 ft 17 kts 37°
2026-04-24 10:54 64.81602 -147.86171 443 ft 10 kts 350°
2026-04-24 10:54 64.81652 -147.86273 443 ft 9 kts 285°
2026-04-24 10:54 64.81622 -147.86414 443 ft 10 kts 220°
2026-04-24 10:55 64.81569 -147.86518 443 ft 9 kts 219°
2026-04-24 10:55 64.81528 -147.86594 443 ft 7 kts 218°
2026-04-24 10:55 64.81496 -147.86698 443 ft 7 kts 260°
2026-04-24 10:55 64.81509 -147.86783 443 ft 5 kts 307°
2026-04-24 10:56 64.81536 -147.86859 443 ft 7 kts 322°
2026-04-24 10:56 64.81582 -147.86883 443 ft 7 kts
2026-04-24 10:56 64.81623 -147.86863 443 ft 4 kts 13°
2026-04-24 10:56 64.81643 -147.86851 443 ft 2 kts 14°
2026-04-24 10:57 64.81645 -147.86850 443 ft 0 kts 14°